CYYZ

Toronto/Lester B. Pearson International Airport

Airport
ICAO code
CYYZ
IATA Code
YYZ
Summary
ICAO Region
NAM
ICAO Territory
Location

Mississauga, Ontario

Serving
Toronto
Elevation
569 ft
Coordinates
43° 40' 20" N , 79° 37' 24" W
KCC
Airport LOS
Parallel Runway Operation
Metar
CYYZ 201700Z 14010KT 15SM FEW055 SCT160 BKN240 28/22 A3028 RMK CU1AC4CI2 CU TR SLP254 DENSITY ALT 1800FT

International airport serving Toronto. The airport is located in Mississauga, 27 km northwest of Downtown Toronto.

Climatology

Humid continental climate (Köppen climate classification Dfa)

Runways

Designator Length Width Surface Rops
06R/24L 2743 61 ASP Yes/Yes
15R/33L 2770 61 ASP Yes/Yes
06L/24R 2956 61 ASP Yes/Yes
15L/33R 3368 61 ASP Yes/Yes
5/23 3389 61 PEM Yes/Yes

SKYbrary Partners:

Safety knowledge contributed by: